Regional Weather Roundup
Issued by NWS

Home | Current Version | Previous Version | Text Only | Print | Product List | Glossary Off
Versions: 1 2 3 4 5 6 7 8 9 10 11 12 13 14 15 16 17 18 19 20 21 22 23 24 25 26 27 28 29 30 31 32 33 34 35 36 37 38 39 40 41 42 43 44 45 46 47 48 49 50

000
ASUS45 KSLC 210310
RWRUT

UTAH REGIONAL WEATHER ROUNDUP
NATIONAL WEATHER SERVICE SALT LAKE CITY UT
800 PM MST FRI JAN 20 2017

UTZ001>011-023>025-210400-

NORTHERN UTAH

CITY           SKY/WX    TMP DP  RH WIND       PRES   REMARKS
BRIGHAM CITY     N/A     30  27  86 W6        29.36S WCI  24
HILL AFB       LGT SNOW  32  30  93 S9        29.34S VSB 1   WCI  24
LOGAN          CLOUDY    28  28 100 NW3       29.36F FOG
OGDEN          LGT SNOW  33  30  88 S7        29.34S FOG     WCI  27
SALT LAKE CITY CLOUDY    36  30  79 SE8       29.34S WCI  30
TOOELE VALLEY  CLOUDY    32  32 100 CALM      29.33S FOG
WENDOVER       CLOUDY    27  25  93 CALM      29.33S
HEBER CITY     CLOUDY    30  21  69 N6        29.35F WCI  24
WEST JORDAN    CLOUDY    33  33 100 S13       29.34F WCI  24

$$

UTZ011>015-024>027-210400-

CENTRAL/NORTHEAST UTAH

CITY           SKY/WX    TMP DP  RH WIND       PRES   REMARKS
PROVO AIRPORT  CLOUDY    36  26  67 S14       29.37R WCI  27
MOAB/CANYONLAN CLOUDY    34  33  96 SE10      29.45F WCI  26
DELTA          CLOUDY    32  32 100 SE3       29.34F
PRICE          FLURRIES  29  28  96 E7        29.42S WCI  22
ROOSEVELT      LGT SNOW  21  19  93 CALM      29.50F
VERNAL         LGT SNOW  22  18  85 W3        29.48F FOG

$$

UTZ013>016-019>022-027-210400-

SOUTHERN UTAH

CITY           SKY/WX    TMP DP  RH WIND       PRES   REMARKS
BRYCE CANYON   LGT SNOW  26  24  92 SE18      29.39F VSB 3/4 WCI  13
CEDAR CITY     CLOUDY    31  29  92 S10       29.32F WCI  22
MILFORD        FLURRIES  33  32  96 SW8       29.33F WCI  26
ST GEORGE      CLOUDY    41  34  75 E7        29.40F
HANKSVILLE     CLOUDY    37  32  81 MISG      29.46S
BLANDING       CLOUDY    31  31 100 S5        29.59F WCI  26

$$

REGIONAL REPORTS     COLORADO/ARIZONA

CITY           SKY/WX    TMP DP  RH WIND       PRES   REMARKS
CRAIG, CO      CLOUDY    27  20  75 E5        29.49S WCI  22
GRAND JUNCTION CLOUDY    32  32 100 SE5       29.48F WCI  27
RIFLE, CO      CLOUDY    31  29  92 E6        29.51F WCI  25
MONTROSE, CO   CLOUDY    34  24  67 VRB3      29.53F
CORTEZ, CO     LGT SNOW  32  31  96 CALM      29.55F VSB 1
COLORADO CITY  LGT RAIN  34  34 100 E10       29.42F WCI  26
PAGE, AZ       LGT RAIN  40  30  67 CALM      29.43F
GRAND CANYON   MIX PCPN  31  30  96 S16G23    29.45S WCI  20
KINGMAN, AZ    RAIN      42  38  85 S22       29.41F
FLAGSTAFF, AZ  SNOW      28  28 100 SW8       29.46F VSB 1/2 WCI  20

$$

REGIONAL REPORTS    NEVADA/IDAHO/WYOMING

CITY           SKY/WX    TMP DP  RH WIND       PRES   REMARKS
LAS VEGAS, NV  CLOUDY    50  38  63 S17G30    29.29F
ELY, NY        CLOUDY    31  25  78 SW12G24   29.25R WCI  22
ELKO, NV       LGT SNOW  29  27  92 NE3       29.22F FOG
POCATELLO, ID  CLOUDY    26  22  84 CALM      29.34F
BURLEY, ID     CLOUDY    34  27  75 NW5       29.27F WCI  30
FORT BRIDGER,  FOG       10  10 100 NE7       29.40S VSB<1/4 WCI  -1
EVANSTON, WY   CLOUDY    22  15  75 E7        29.34F WCI  13
ROCK SPRINGS,  CLOUDY    18  13  80 SE8       29.40F WCI   8

$$



USA.gov is the U.S. government's official web portal to all federal, state and local government web resources and services.